OpenBCM V1.13 (Linux)

Packet Radio Mailbox

DB0FHN

[JN59NK Nuernberg]

 Login: GUEST





  
I0OJJ  > KEPS     13.02.26 02:33l 308 Lines 14717 Bytes #999 (0) @ AMSAT
BID : ORB26044.1
Read: OE5RCO DJ6UX GUEST
Subj: 2Line Orbital Elements 26044.AMSAT
Path: DB0FHN<DB0RKB<DK0WUE<PD0LPM<PI8ZTM<CX2SA<EA2RCF<I0OJJ
Sent: 260213/0021z @:I0OJJ.ITA.EU [Rome] obcm1.13-38-g65b7
From: I0OJJ @ I0OJJ.ITA.EU (Gustavo)
To:   KEPS @ AMSAT
X-Info: This message was generated automatically


QST de W1STR

AMSAT Orbital Elements for Amateur Satellites in TLE Format
From Orbital Analysis Office
New England Sci-Tech STEM Education Center
Natick MA February 13, 2026
To all radio amateurs


These element sets describe the orbits of various satellites 
in use by the amateur radio community. For details see:
www.amsat.org/keplerian-elements-formats/

A daily update of element sets is available at:
www.amsat.org/tle/daily-bulletin.txt
or without bulletin text:
www.amsat.org/tle/dailytle.txt


AO-07
1 07530U 74089B   26043.59164973 -.00000021  00000-0  16091-3 0  9996
2 07530 101.9972  55.5118 0012229  10.3711 110.0572 12.53695778344909
UO-11
1 14781U 84021B   26043.83368476  .00001688  00000-0  17898-3 0  9995
2 14781  97.7901  10.9411 0006299 228.0146 132.0536 14.90411568238609
AO-27
1 22825U 93061C   26043.74363781  .00000109  00000-0  58535-4 0  9992
2 22825  98.7036 111.1279 0009498 104.5838 255.6399 14.30904416689201
FO-29
1 24278U 96046B   26043.58366545 -.00000003  00000-0  31007-4 0  9994
2 24278  98.5416 269.3953 0350733  59.8128 303.7266 13.53266837456319
GO-32
1 25397U 98043D   26043.80335542  .00000102  00000-0  64453-4 0  9994
2 25397  98.9994  33.4725 0001060 160.1918 199.9302 14.24398870433620
ISS
1 25544U 98067A   26043.60113347  .00008494  00000-0  16437-3 0  9999
2 25544  51.6314 196.3763 0011106  91.6743 268.5518 15.48566265552449
NO-44
1 26931U 01043C   26043.76235690  .00000201  00000-0  10595-3 0  9998
2 26931  67.0493 206.0778 0006985 265.8347  94.1956 14.31897624272634
SO-50
1 27607U 02058C   26043.72956869  .00001708  00000-0  21965-3 0  9996
2 27607  64.5531 153.9603 0074562 285.2252  74.0618 14.82681967246005
CO-55
1 27844U 03031E   26043.48384662  .00000400  00000-0  19223-3 0  9992
2 27844  98.6776  53.5971 0009512 181.2733 178.8424 14.24244623173920
CO-57
1 27848U 03031J   26043.55083137  .00000310  00000-0  15559-3 0  9995
2 27848  98.6804  53.4761 0009075 199.4778 160.6055 14.23542847173642
RS-22
1 27939U 03042A   26043.87529832  .00001441  00000-0  23154-3 0  9996
2 27939  98.3410 224.7500 0010455 307.0448 182.9835 14.73180676197240
CO-58
1 28895U 05043F   26043.36540820  .00002263  00000-0  36667-3 0  9991
2 28895  98.2785 196.5206 0013388 239.6612 120.3271 14.72203945 83389
CO-65
1 32785U 08021C   26043.89980838  .00006438  00000-0  42217-3 0  9994
2 32785  97.8153  22.9428 0011053  91.1313 269.1181 15.07995788966452
CO-66
1 32791U 08021J   26043.52028570  .00019958  00000-0  73310-3 0  9996
2 32791  97.7493  35.9328 0004959  57.7205 302.4513 15.27953995968226
RS-30
1 32953U 08025A   26043.83998569  .00000070  00000-0  43326-3 0  9997
2 32953  82.4993  72.7907 0018699 220.1669 139.8030 12.43175037804245
SRMSAT
1 37841U 11058D   26043.53984066  .00000435  00000-0  92442-4 0  9991
2 37841  19.9718  93.9182 0011511 273.0559 237.5084 14.11538102740187
ZACUBE-1
1 39417U 13066B   26043.85086298  .00006411  00000-0  51122-3 0  9997
2 39417  97.8178   5.5555 0040527 305.7150  54.0305 15.00028448662081
Delfi-N3xt
1 39428U 13066N   26043.68915635  .00007853  00000-0  71547-3 0  9990
2 39428  97.8346 324.2857 0075420 260.7422  98.5262 14.93249507656033
GOMX-1
1 39430U 13066Q   26043.82750634  .00002693  00000-0  41065-3 0  9994
2 39430  97.6585 252.0812 0130724 116.5489 244.9187 14.68993227651651
LO-74
1 39440U 13066AA  26043.82956114  .00004384  00000-0  41629-3 0  9991
2 39440  97.8777 352.4768 0060681  79.7114 281.0939 14.92645104658436
AO-73
1 39444U 13066AE  26043.48673761  .00010653  00000-0  69735-3 0  9995
2 39444  97.8139  12.6152 0035549 267.8964  91.8192 15.07414168660861
DTUSAT-2
1 40030U 14033W   26043.86317260  .00008818  00000-0  50255-3 0  9991
2 40030  98.0815  33.9114 0006559 308.1311  51.9326 15.13041664633877
EO-80
1 40032U 14033Y   26043.40639835  .00010102  00000-0  57311-3 0  9997
2 40032  98.0701  32.7376 0005896 230.9455 129.1251 15.13166185633785
LILACSAT-2
1 40908U 15049K   26043.87872894  .00017663  00000-0  35017-3 0  9990
2 40908  97.4852  76.2560 0007172 358.8181   1.3051 15.47076301576502
Horyu-4
1 41340U 16012D   26043.58823096  .00070795  00000-0  87951-3 0  9999
2 41340  30.9902 242.9834 0001072 139.7336 220.3395 15.58644692551185
Lapan A3
1 41603U 16040E   26043.88240059  .00003871  00000-0  12682-3 0  9997
2 41603  97.1462  44.2165 0012508  99.7726 260.4929 15.32152304535778
CAS-2T
1 41847U 16066G   26043.76878521  .00001803  00000-0  26054-3 0  9994
2 41847  98.3937 120.8887 0343658 146.8342 215.4915 14.44380722486837
TechnoSat
1 42829U 17042E   26043.41498332  .00004458  00000-0  32541-3 0  9997
2 42829  97.4083 206.0086 0018396 156.5872 203.6197 15.04034310467940
AO-91
1 43017U 17073E   26043.62228308  .00009897  00000-0  45047-3 0  9995
2 43017  97.4908 273.4520 0158441  38.4426 322.7966 15.10294548446577
S-Net D
1 43186U 18014G   26043.71548596  .00005645  00000-0  30310-3 0  9996
2 43186  97.5463 309.3379 0010403  88.9613 271.2811 15.15282631439906
S-Net B
1 43187U 18014H   26043.72459369  .00005887  00000-0  31610-3 0  9999
2 43187  97.5471 309.3296 0011049  85.5023 274.7471 15.15255781439905
S-Net A
1 43188U 18014J   26043.71493992  .00005619  00000-0  30160-3 0  9991
2 43188  97.5478 309.5063 0010947  85.7824 274.4659 15.15288426439901
S-Net C
1 43189U 18014K   26043.72781943  .00006011  00000-0  32263-3 0  9992
2 43189  97.5496 309.5743 0012344  79.7074 280.5549 15.15248160438456
Ten-Koh
1 43677U 18084G   26043.46606529  .00004346  00000-0  33386-3 0  9994
2 43677  98.0752 230.6001 0009630 175.7570 184.3737 15.02276597397435
PO-101
1 43678U 18084H   26043.83840954  .00002640  00000-0  21833-3 0  9997
2 43678  98.1060 234.8541 0009282 203.7525 156.3270 14.99836386397578
QO-100
1 43700U 18090A   26043.76418785  .00000151  00000-0  00000+0 0  9999
2 43700   0.0135 100.0477 0002528 270.1968  73.4302  1.00274091 26421
MinXSS-2
1 43758U 18099A   26043.69080704  .00031082  00000-0  81388-3 0  9998
2 43758  97.4685 117.0383 0008297   0.1939 359.9308 15.38623134394930
AO-95
1 43770U 18099N   26043.69362039  .00012434  00000-0  51937-3 0  9993
2 43770  97.4576 104.5609 0010487  70.6218 289.6152 15.23723008394246
SNUSat 2
1 43782U 18099AA  26043.38584672  .00010398  00000-0  48965-3 0  9995
2 43782  97.4253  98.7619 0011022  20.8999 339.2684 15.19661251394063
SnugLite
1 43784U 18099AC  26043.59885912  .00012560  00000-0  51897-3 0  9992
2 43784  97.4069  99.2580 0003380  36.2342 323.9124 15.24130480394323
ITASat 1
1 43786U 18099AE  26043.78256686  .00007270  00000-0  36761-3 0  9990
2 43786  97.4226  97.8173 0014417  69.7836 290.4947 15.17249331394031
EAGLET 1
1 43790U 18099AJ  26043.67044436  .00004585  00000-0  27137-3 0  9994
2 43790  97.4431  96.6136 0012697  60.8382 299.4117 15.11850148393514
ESEO
1 43792U 18099AL  26043.63712389  .00001758  00000-0  13188-3 0  9991
2 43792  97.4168  86.2810 0013545  46.4536 313.7813 15.03809867393089
JO-97
1 43803U 18099AX  26043.83028985  .00017211  00000-0  60649-3 0  9993
2 43803  97.4317 106.5178 0005925   4.6053 355.5241 15.29338171394593
Suomi 100
1 43804U 18099AY  26043.69308538  .00012795  00000-0  51045-3 0  9995
2 43804  97.4380 104.7195 0010459   8.0406 352.0997 15.25263665394424
ISAT
1 43879U 18111D   26043.73124756  .00048794  00000-0  92774-3 0  9997
2 43879  97.5904 331.1866 0008140  55.1193 305.0821 15.48067867391815
UWE-4
1 43880U 18111E   26043.77381285  .00030568  00000-0  80869-3 0  9997
2 43880  97.5853 327.1925 0011586  60.0887 300.1507 15.38277369391607
Sparrow
1 43881U 18111F   26043.80289301  .00055219  00000-0  93882-3 0  9997
2 43881  97.6103 335.4387 0008065  82.5494 277.6673 15.51228295391962
Prox-1
1 44339U 19036A   26043.81498240  .00014581  00000-0  15489-2 0  9991
2 44339  23.9938 223.0016 0007412  38.1155 321.9867 14.87232081354914
Taurus 1
1 44530U 19059C   26043.85931316  .00011453  00000-0  18987-2 0  9990
2 44530  98.6260 201.2103 0008225 340.2288  19.8597 14.70383785340363
TO-108
1 44881U 19093C   26043.84383193  .00001620  00000-0  18983-3 0  9992
2 44881  97.7662 119.0647 0014627 131.6878 228.5592 14.86285396332942
FloripaSat 1
1 44885U 19093G   26043.80963473  .00008324  00000-0  63343-3 0  9995
2 44885  97.7896 137.2904 0011974 129.6324 230.5959 15.02309225333968
RS-44
1 44909U 19096E   26043.54272750  .00000027  00000-0  55085-4 0  9994
2 44909  82.5172  62.5324 0218643  75.8986 286.6307 12.79746971286407
SALSAT
1 46495U 20068K   26043.59008449  .00010070  00000-0  37483-3 0  9994
2 46495  97.8836  39.2786 0011092  29.7650 330.4217 15.27650074296327
CSS (TIANHE-1)
1 48274U 21035A   26043.36548111  .00025006  00000-0  30901-3 0  9999
2 48274  41.4683   2.1188 0004177  70.2177 289.9112 15.59540368273657
CUTE
1 49263U 21088D   26043.68690405  .00034380  00000-0  35809-3 0  9992
2 49263  97.4265 134.5359 0004133  52.1137 308.0495 15.64482894242962
TeikyoSat 4
1 49396U 21102B   26043.67696622  .00001977  00000-0  12874-3 0  9995
2 49396  97.3838  77.9417 0012349  10.2827 349.8653 15.08993856233948
Z-Sat
1 49399U 21102E   26043.85576171  .00005006  00000-0  25470-3 0  9997
2 49399  97.3506  82.9351 0016055 326.0840  33.9365 15.17161402234583
KOSEN 1
1 49402U 21102H   26043.61090078  .00008308  00000-0  33641-3 0  9990
2 49402  97.3388  88.2357 0012648 289.9029  70.0846 15.24856625235023
HO-113
1 50466U 21131B   26043.85808258  .00000742  00000-0  24354-3 0  9992
2 50466  98.4982 136.9538 0005231 108.6127 251.5630 14.41217597217209
SNUGLITE 2
1 52899U 22065F   26043.38497698  .00001437  00000-0  28297-3 0  9993
2 52899  98.1984 188.5981 0008408  60.9926 299.2118 14.64057504192736
